Weather History for KMPO - July, 2013

Change the Weather History Date:

Saturday, July 27, 2013

  Actual Average Record
Temperature  
Mean Temperature 65 °F 68 °F  
Max Temperature 77 °F 78 °F 91 °F (1955)
Min Temperature 52 °F 58 °F 39 °F (1977)
Degree Days  
Heating Degree Days 0 1  
Month to date heating degree days 7 27  
Since 1 June heating degree days 83 127  
Since 1 July heating degree days 7 27  
Cooling Degree Days 0 4  
Month to date cooling degree days 225 107  
Year to date cooling degree days 338 188  
Since 1 June cooling degree days 306 169  
Growing Degree Days 15 (Base 50)    
Moisture  
Dew Point 59 °F    
Average Humidity 77    
Maximum Humidity 93    
Minimum Humidity 60    
Precipitation  
Precipitation 0.02 in 0.16 in 1.83 in (1987)
Month to date precipitation 5.58 3.88  
Year to date precipitation 28.78 25.76  
Sea Level Pressure  
Sea Level Pressure 30.04 in    
Wind  
Wind Speed 7 mph (South)    
Max Wind Speed 16 mph    
Max Gust Speed 21 mph    
Visibility 10 miles    
Events Rain    
T = Trace of Precipitation, MM = Missing Value Source: NWS Daily Summary

Daily Weather History Graph

Daily Weather History Graph

Search for Another Location

Airport or City:

Trip Planner

Search our weather history database for the weather conditions in past years. The results will help you decide how hot, cold, wet, or windy it might be!

Date:

Astronomy

Jul. 27, 2013 Rise Set
Actual Time 5:52 AM EDT 8:22 PM EDT
Civil Twilight 5:21 AM EDT 8:54 PM EDT
Nautical Twilight 4:41 AM EDT 9:33 PM EDT
Astronomical Twilight 3:57 AM EDT 10:16 PM EDT
Moon 11:04 PM EDT (7/27) 11:34 AM EDT (7/27)
Length of Visible Light 15h 33m
Length of Day
14h 30m
Waning Gibbous, 71% of the Moon is Illuminated
Jul 27
Waning Gibbous
Jul 29
Last Quarter
Aug 6
New
Aug 14
First Quarter
Aug 20
Full

Hourly Weather History & Observations

Time (EDT) Temp. Dew Point Humidity Pressure Visibility Wind Dir Wind Speed Gust Speed Precip Events Conditions
12:53 AM 55.0 °F 52.0 °F 89% 30.09 in 10.0 mi Calm Calm - N/A   Clear
1:53 AM 55.0 °F 52.0 °F 89% 30.08 in 10.0 mi Calm Calm - N/A   Clear
2:53 AM 53.1 °F 50.0 °F 89% 30.08 in 10.0 mi Calm Calm - N/A   Clear
3:53 AM 53.1 °F 50.0 °F 89% 30.06 in 10.0 mi Calm Calm - N/A   Clear
4:53 AM 53.1 °F 51.1 °F 93% 30.06 in 10.0 mi Calm Calm - N/A   Clear
5:53 AM 55.9 °F 53.1 °F 90% 30.07 in 10.0 mi Calm Calm - N/A   Clear
6:53 AM 61.0 °F 57.9 °F 90% 30.06 in 10.0 mi WSW 3.5 mph - N/A   Clear
7:53 AM 66.0 °F 60.1 °F 81% 30.06 in 10.0 mi SW 4.6 mph - N/A   Clear
8:53 AM 70.0 °F 57.0 °F 63% 30.07 in 10.0 mi SW 10.4 mph - N/A   Clear
9:53 AM 72.0 °F 57.0 °F 59% 30.07 in 10.0 mi SSW 10.4 mph - N/A   Scattered Clouds
10:53 AM 72.0 °F 59.0 °F 64% 30.08 in 10.0 mi SW 12.7 mph 18.4 mph N/A   Mostly Cloudy
11:00 AM 71.6 °F 59.0 °F 64% 30.10 in 10.0 mi SSW 10.4 mph 19.6 mph N/A   Scattered Clouds
11:53 AM 73.0 °F 60.1 °F 64% 30.08 in 10.0 mi SSW 12.7 mph - N/A   Mostly Cloudy
12:23 PM 73.4 °F 60.8 °F 65% 30.10 in 10.0 mi SSW 12.7 mph - N/A   Mostly Cloudy
12:48 PM 75.2 °F 60.8 °F 61% 30.09 in 10.0 mi SSW 12.7 mph 18.4 mph N/A   Mostly Cloudy
12:53 PM 75.9 °F 61.0 °F 60% 30.07 in 10.0 mi SSW 10.4 mph - N/A   Scattered Clouds
1:53 PM 75.9 °F 62.1 °F 62% 30.05 in 10.0 mi SSW 8.1 mph - N/A   Mostly Cloudy
2:09 PM 75.2 °F 62.6 °F 65% 30.07 in 10.0 mi South 13.8 mph 20.7 mph N/A   Mostly Cloudy
2:53 PM 77.0 °F 62.1 °F 60% 30.04 in 10.0 mi South 9.2 mph - N/A   Scattered Clouds
3:53 PM 75.0 °F 62.1 °F 64% 30.02 in 10.0 mi SSE 11.5 mph - N/A   Scattered Clouds
4:53 PM 75.9 °F 63.0 °F 64% 30.00 in 10.0 mi SE 12.7 mph - N/A   Partly Cloudy
5:53 PM 73.0 °F 62.1 °F 68% 29.98 in 10.0 mi SE 11.5 mph - N/A   Mostly Cloudy
6:00 PM 73.4 °F 62.6 °F 69% 30.00 in 10.0 mi SSE 12.7 mph - N/A   Scattered Clouds
6:53 PM 72.0 °F 62.1 °F 71% 29.99 in 10.0 mi SSE 9.2 mph - N/A   Partly Cloudy
7:53 PM 71.1 °F 61.0 °F 70% 29.99 in 10.0 mi SSE 8.1 mph - N/A   Partly Cloudy
8:53 PM 71.1 °F 60.1 °F 68% 30.00 in 10.0 mi SSE 10.4 mph - N/A   Partly Cloudy
9:53 PM 70.0 °F 61.0 °F 73% 30.00 in 9.0 mi SSE 10.4 mph - 0.00 in Rain Light Rain
10:51 PM 66.2 °F 62.6 °F 88% 30.03 in 10.0 mi WSW 3.5 mph - 0.02 in   Overcast
10:53 PM 66.0 °F 63.0 °F 90% 30.00 in 10.0 mi WSW 3.5 mph - 0.02 in   Overcast
11:06 PM 66.2 °F 62.6 °F 88% 30.02 in 9.0 mi Calm Calm - N/A   Overcast
11:26 PM 66.2 °F 62.6 °F 88% 30.01 in 10.0 mi Calm Calm - N/A   Overcast
11:53 PM 64.9 °F 63.0 °F 93% 29.98 in 6.0 mi Calm Calm - N/A   Mostly Cloudy